Time,TemperatureF,DewpointF,PressureIn,WindDirection,WindDirectionDegrees,WindSpeedMPH,WindSpeedGustMPH,Humidity,HourlyPrecipIn,Conditions,Clouds,dailyrainin,SoftwareType,DateUTC
2013-04-17 00:02:00,58.0,-99.9,30.17,North,358,8.0,12.0,-999,-99.99,,,-99.99,,2013-04-17 07:02:00,
2013-04-17 00:12:00,58.0,-99.9,30.17,North,349,9.0,12.0,-999,-99.99,,,-99.99,,2013-04-17 07:12:00,
2013-04-17 00:22:00,58.0,-99.9,30.17,NNW,342,9.0,14.0,-999,-99.99,,,-99.99,,2013-04-17 07:22:00,
2013-04-17 00:32:00,58.0,-99.9,30.17,North,354,10.0,15.0,-999,-99.99,,,-99.99,,2013-04-17 07:32:00,
2013-04-17 00:42:00,58.0,-99.9,30.17,North,354,10.0,15.0,-999,-99.99,,,-99.99,,2013-04-17 07:42:00,
2013-04-17 00:52:00,58.0,-99.9,30.18,North,351,9.0,15.0,-999,-99.99,,,-99.99,,2013-04-17 07:52:00,
2013-04-17 01:02:00,58.0,-99.9,30.18,NNW,344,12.0,15.0,-999,-99.99,,,-99.99,,2013-04-17 08:02:00,
2013-04-17 01:12:00,58.0,-99.9,30.18,NNW,346,14.0,17.0,-999,-99.99,,,-99.99,,2013-04-17 08:12:00,
2013-04-17 01:22:00,58.0,-99.9,30.18,NNW,343,13.0,17.0,-999,-99.99,,,-99.99,,2013-04-17 08:22:00,
2013-04-17 01:33:00,58.0,-99.9,30.19,NNW,343,13.0,15.0,-999,-99.99,,,-99.99,,2013-04-17 08:33:00,
2013-04-17 01:42:00,58.0,-99.9,30.19,NNW,340,12.0,15.0,-999,-99.99,,,-99.99,,2013-04-17 08:42:00,
2013-04-17 01:52:00,58.0,-99.9,30.19,NNW,340,12.0,15.0,-999,-99.99,,,-99.99,,2013-04-17 08:52:00,
2013-04-17 02:02:00,58.0,-99.9,30.19,NNW,333,7.0,13.0,-999,-99.99,,,-99.99,,2013-04-17 09:02:00,
2013-04-17 02:12:00,58.0,-99.9,30.19,NNW,348,9.0,13.0,-999,-99.99,,,-99.99,,2013-04-17 09:12:00,
2013-04-17 02:22:00,58.0,-99.9,30.19,NNW,348,9.0,13.0,-999,-99.99,,,-99.99,,2013-04-17 09:22:00,
2013-04-17 02:33:00,58.0,-99.9,30.19,NNW,348,9.0,13.0,-999,-99.99,,,-99.99,,2013-04-17 09:33:00,
2013-04-17 02:43:00,59.0,-99.9,30.19,North,8,13.0,19.0,-999,-99.99,,,-99.99,,2013-04-17 09:43:00,
2013-04-17 02:53:00,60.0,-99.9,30.19,North,11,14.0,22.0,-999,-99.99,,,-99.99,,2013-04-17 09:53:00,
2013-04-17 03:03:00,59.0,-99.9,30.19,North,8,13.0,19.0,-999,-99.99,,,-99.99,,2013-04-17 10:03:00,
2013-04-17 03:12:00,60.0,-99.9,30.19,North,8,15.0,21.0,-999,-99.99,,,-99.99,,2013-04-17 10:12:00,
2013-04-17 03:23:00,59.0,-99.9,30.19,North,5,15.0,22.0,-999,-99.99,,,-99.99,,2013-04-17 10:23:00,
2013-04-17 03:33:00,59.0,-99.9,30.19,North,0,13.0,22.0,-999,-99.99,,,-99.99,,2013-04-17 10:33:00,
2013-04-17 03:43:00,59.0,-99.9,30.19,North,360,13.0,21.0,-999,-99.99,,,-99.99,,2013-04-17 10:43:00,
2013-04-17 03:53:00,59.0,-99.9,30.18,North,356,12.0,21.0,-999,-99.99,,,-99.99,,2013-04-17 10:53:00,
2013-04-17 04:02:00,58.0,-99.9,30.19,North,349,12.0,19.0,-999,-99.99,,,-99.99,,2013-04-17 11:02:00,
2013-04-17 04:12:00,58.0,-99.9,30.19,North,349,12.0,18.0,-999,-99.99,,,-99.99,,2013-04-17 11:12:00,
2013-04-17 04:22:00,58.0,-99.9,30.19,North,354,13.0,18.0,-999,-99.99,,,-99.99,,2013-04-17 11:22:00,
2013-04-17 04:32:00,58.0,-99.9,30.19,North,355,12.0,21.0,-999,-99.99,,,-99.99,,2013-04-17 11:32:00,
2013-04-17 04:42:00,58.0,-99.9,30.19,North,354,13.0,17.0,-999,-99.99,,,-99.99,,2013-04-17 11:42:00,
2013-04-17 04:52:00,58.0,-99.9,30.19,NNW,336,11.0,15.0,-999,-99.99,,,-99.99,,2013-04-17 11:52:00,
2013-04-17 05:03:00,58.0,-99.9,30.19,NNW,331,11.0,16.0,-999,-99.99,,,-99.99,,2013-04-17 12:03:00,
2013-04-17 05:12:00,58.0,-99.9,30.19,NW,326,10.0,17.0,-999,-99.99,,,-99.99,,2013-04-17 12:12:00,
2013-04-17 05:22:00,58.0,-99.9,30.20,NNW,337,13.0,21.0,-999,-99.99,,,-99.99,,2013-04-17 12:22:00,
2013-04-17 05:32:00,58.0,-99.9,30.20,NNW,342,15.0,20.0,-999,-99.99,,,-99.99,,2013-04-17 12:32:00,
2013-04-17 05:42:00,58.0,-99.9,30.20,NNW,342,15.0,20.0,-999,-99.99,,,-99.99,,2013-04-17 12:42:00,
2013-04-17 05:52:00,58.0,-99.9,30.21,North,350,14.0,19.0,-999,-99.99,,,-99.99,,2013-04-17 12:52:00,
2013-04-17 06:02:00,58.0,-99.9,30.21,NNW,344,15.0,22.0,-999,-99.99,,,-99.99,,2013-04-17 13:02:00,
2013-04-17 06:12:00,58.0,-99.9,30.21,NNW,344,15.0,22.0,-999,-99.99,,,-99.99,,2013-04-17 13:12:00,
2013-04-17 06:22:00,58.0,-99.9,30.21,North,354,14.0,22.0,-999,-99.99,,,-99.99,,2013-04-17 13:22:00,
2013-04-17 06:32:00,57.0,-99.9,30.21,North,357,12.0,19.0,-999,-99.99,,,-99.99,,2013-04-17 13:32:00,
2013-04-17 06:42:00,57.0,-99.9,30.22,North,2,13.0,20.0,-999,-99.99,,,-99.99,,2013-04-17 13:42:00,
2013-04-17 06:52:00,57.0,-99.9,30.22,North,359,13.0,20.0,-999,-99.99,,,-99.99,,2013-04-17 13:52:00,
2013-04-17 07:02:00,57.0,-99.9,30.23,North,5,15.0,25.0,-999,-99.99,,,-99.99,,2013-04-17 14:02:00,
2013-04-17 07:12:00,58.0,-99.9,30.23,North,11,15.0,23.0,-999,-99.99,,,-99.99,,2013-04-17 14:12:00,
2013-04-17 07:22:00,57.0,-99.9,30.23,North,355,12.0,19.0,-999,-99.99,,,-99.99,,2013-04-17 14:22:00,
2013-04-17 07:32:00,57.0,-99.9,30.24,North,2,12.0,20.0,-999,-99.99,,,-99.99,,2013-04-17 14:32:00,
2013-04-17 07:43:00,57.0,-99.9,30.24,North,356,11.0,21.0,-999,-99.99,,,-99.99,,2013-04-17 14:43:00,
2013-04-17 07:52:00,57.0,-99.9,30.25,North,356,9.0,18.0,-999,-99.99,,,-99.99,,2013-04-17 14:52:00,
2013-04-17 08:02:00,58.0,-99.9,30.26,North,354,9.0,14.0,-999,-99.99,,,-99.99,,2013-04-17 15:02:00,
2013-04-17 08:12:00,58.0,-99.9,30.26,North,1,8.0,14.0,-999,-99.99,,,-99.99,,2013-04-17 15:12:00,
2013-04-17 08:22:00,58.0,-99.9,30.27,NNW,341,9.0,14.0,-999,-99.99,,,-99.99,,2013-04-17 15:22:00,
2013-04-17 08:33:00,58.0,-99.9,30.27,NNW,345,11.0,17.0,-999,-99.99,,,-99.99,,2013-04-17 15:33:00,
2013-04-17 08:43:00,58.0,-99.9,30.27,NNW,341,13.0,18.0,-999,-99.99,,,-99.99,,2013-04-17 15:43:00,
2013-04-17 08:53:00,59.0,-99.9,30.27,North,354,10.0,16.0,-999,-99.99,,,-99.99,,2013-04-17 15:53:00,
2013-04-17 09:03:00,59.0,-99.9,30.28,North,0,15.0,22.0,-999,-99.99,,,-99.99,,2013-04-17 16:03:00,
2013-04-17 09:13:00,59.0,-99.9,30.28,NNW,331,14.0,21.0,-999,-99.99,,,-99.99,,2013-04-17 16:13:00,
2013-04-17 09:23:00,59.0,-99.9,30.28,North,3,14.0,22.0,-999,-99.99,,,-99.99,,2013-04-17 16:23:00,
2013-04-17 09:32:00,59.0,-99.9,30.28,North,350,14.0,20.0,-999,-99.99,,,-99.99,,2013-04-17 16:32:00,
2013-04-17 09:42:00,59.0,-99.9,30.28,North,350,14.0,20.0,-999,-99.99,,,-99.99,,2013-04-17 16:42:00,
2013-04-17 09:52:00,60.0,-99.9,30.28,North,359,14.0,24.0,-999,-99.99,,,-99.99,,2013-04-17 16:52:00,
2013-04-17 10:02:00,61.0,-99.9,30.27,NNE,18,17.0,28.0,-999,-99.99,,,-99.99,,2013-04-17 17:02:00,
2013-04-17 10:13:00,60.0,-99.9,30.28,North,3,17.0,26.0,-999,-99.99,,,-99.99,,2013-04-17 17:13:00,
2013-04-17 10:22:00,61.0,-99.9,30.28,NNE,14,15.0,24.0,-999,-99.99,,,-99.99,,2013-04-17 17:22:00,
2013-04-17 10:33:00,61.0,-99.9,30.28,North,0,15.0,24.0,-999,-99.99,,,-99.99,,2013-04-17 17:33:00,
2013-04-17 10:42:00,61.0,-99.9,30.28,NNE,25,19.0,27.0,-999,-99.99,,,-99.99,,2013-04-17 17:42:00,
2013-04-17 10:52:00,62.0,-99.9,30.28,NNE,18,12.0,26.0,-999,-99.99,,,-99.99,,2013-04-17 17:52:00,
2013-04-17 11:02:00,62.0,-99.9,30.28,North,5,14.0,26.0,-999,-99.99,,,-99.99,,2013-04-17 18:02:00,
2013-04-17 11:12:00,63.0,-99.9,30.28,North,356,15.0,25.0,-999,-99.99,,,-99.99,,2013-04-17 18:12:00,
2013-04-17 11:22:00,62.0,-99.9,30.28,North,6,17.0,27.0,-999,-99.99,,,-99.99,,2013-04-17 18:22:00,
2013-04-17 11:33:00,63.0,-99.9,30.28,North,0,16.0,25.0,-999,-99.99,,,-99.99,,2013-04-17 18:33:00,
2013-04-17 11:42:00,63.0,-99.9,30.28,North,358,12.0,21.0,-999,-99.99,,,-99.99,,2013-04-17 18:42:00,
2013-04-17 11:52:00,63.0,-99.9,30.29,North,355,14.0,23.0,-999,-99.99,,,-99.99,,2013-04-17 18:52:00,
2013-04-17 12:03:00,64.0,-99.9,30.28,NNE,14,16.0,21.0,-999,-99.99,,,-99.99,,2013-04-17 19:03:00,
2013-04-17 12:12:00,64.0,-99.9,30.28,NNE,14,16.0,21.0,-999,-99.99,,,-99.99,,2013-04-17 19:12:00,
2013-04-17 12:22:00,65.0,-99.9,30.28,NNW,348,14.0,20.0,-999,-99.99,,,-99.99,,2013-04-17 19:22:00,
2013-04-17 12:32:00,64.0,-99.9,30.28,NNW,348,15.0,21.0,-999,-99.99,,,-99.99,,2013-04-17 19:32:00,
2013-04-17 12:42:00,64.0,-99.9,30.28,NNE,17,13.0,21.0,-999,-99.99,,,-99.99,,2013-04-17 19:42:00,
2013-04-17 12:52:00,65.0,-99.9,30.27,NNE,20,11.0,19.0,-999,-99.99,,,-99.99,,2013-04-17 19:52:00,
2013-04-17 13:03:00,65.0,-99.9,30.27,North,9,12.0,19.0,-999,-99.99,,,-99.99,,2013-04-17 20:03:00,
2013-04-17 13:12:00,65.0,-99.9,30.27,NNW,339,16.0,23.0,-999,-99.99,,,-99.99,,2013-04-17 20:12:00,
2013-04-17 13:22:00,67.0,-99.9,30.26,North,353,12.0,22.0,-999,-99.99,,,-99.99,,2013-04-17 20:22:00,
2013-04-17 13:33:00,65.0,-99.9,30.26,North,1,15.0,24.0,-999,-99.99,,,-99.99,,2013-04-17 20:33:00,
2013-04-17 13:42:00,66.0,-99.9,30.26,North,6,16.0,23.0,-999,-99.99,,,-99.99,,2013-04-17 20:42:00,
2013-04-17 13:53:00,67.0,-99.9,30.25,NNE,17,11.0,23.0,-999,-99.99,,,-99.99,,2013-04-17 20:53:00,
2013-04-17 14:03:00,67.0,-99.9,30.25,NNW,348,17.0,23.0,-999,-99.99,,,-99.99,,2013-04-17 21:03:00,
2013-04-17 14:13:00,67.0,-99.9,30.25,NNW,348,17.0,23.0,-999,-99.99,,,-99.99,,2013-04-17 21:13:00,
2013-04-17 14:22:00,67.0,-99.9,30.25,NNE,15,9.0,21.0,-999,-99.99,,,-99.99,,2013-04-17 21:22:00,
2013-04-17 14:33:00,68.0,-99.9,30.24,North,349,10.0,17.0,-999,-99.99,,,-99.99,,2013-04-17 21:33:00,
2013-04-17 14:43:00,67.0,-99.9,30.24,NNE,25,15.0,25.0,-999,-99.99,,,-99.99,,2013-04-17 21:43:00,
2013-04-17 14:53:00,68.0,-99.9,30.24,NNE,29,14.0,21.0,-999,-99.99,,,-99.99,,2013-04-17 21:53:00,
2013-04-17 15:02:00,68.0,-99.9,30.23,NNE,22,15.0,22.0,-999,-99.99,,,-99.99,,2013-04-17 22:02:00,
2013-04-17 15:13:00,69.0,-99.9,30.23,NNE,12,12.0,20.0,-999,-99.99,,,-99.99,,2013-04-17 22:13:00,
2013-04-17 15:22:00,69.0,-99.9,30.22,NNE,24,13.0,20.0,-999,-99.99,,,-99.99,,2013-04-17 22:22:00,
2013-04-17 15:33:00,69.0,-99.9,30.22,NNE,12,13.0,23.0,-999,-99.99,,,-99.99,,2013-04-17 22:33:00,
2013-04-17 15:43:00,68.0,-99.9,30.22,NNE,30,19.0,26.0,-999,-99.99,,,-99.99,,2013-04-17 22:43:00,
2013-04-17 15:53:00,69.0,-99.9,30.21,NNE,29,17.0,23.0,-999,-99.99,,,-99.99,,2013-04-17 22:53:00,
2013-04-17 16:02:00,70.0,-99.9,30.21,NW,325,13.0,22.0,-999,-99.99,,,-99.99,,2013-04-17 23:02:00,
2013-04-17 16:12:00,71.0,-99.9,30.21,North,356,12.0,18.0,-999,-99.99,,,-99.99,,2013-04-17 23:12:00,
2013-04-17 16:22:00,70.0,-99.9,30.21,NNE,14,14.0,19.0,-999,-99.99,,,-99.99,,2013-04-17 23:22:00,
2013-04-17 16:32:00,69.0,-99.9,30.20,NW,321,12.0,19.0,-999,-99.99,,,-99.99,,2013-04-17 23:32:00,
2013-04-17 16:42:00,69.0,-99.9,30.20,NNW,339,10.0,16.0,-999,-99.99,,,-99.99,,2013-04-17 23:42:00,
2013-04-17 16:52:00,69.0,-99.9,30.20,NW,323,11.0,17.0,-999,-99.99,,,-99.99,,2013-04-17 23:52:00,
2013-04-17 17:02:00,70.0,-99.9,30.20,NNW,332,11.0,17.0,-999,-99.99,,,-99.99,,2013-04-18 00:02:00,
2013-04-17 17:12:00,70.0,-99.9,30.19,NW,323,9.0,16.0,-999,-99.99,,,-99.99,,2013-04-18 00:12:00,
2013-04-17 17:22:00,70.0,-99.9,30.19,WNW,300,7.0,12.0,-999,-99.99,,,-99.99,,2013-04-18 00:22:00,
2013-04-17 17:32:00,70.0,-99.9,30.19,WNW,300,7.0,12.0,-999,-99.99,,,-99.99,,2013-04-18 00:32:00,
2013-04-17 17:43:00,70.0,-99.9,30.19,NW,315,9.0,15.0,-999,-99.99,,,-99.99,,2013-04-18 00:43:00,
2013-04-17 17:52:00,69.0,-99.9,30.19,NW,309,7.0,11.0,-999,-99.99,,,-99.99,,2013-04-18 00:52:00,
2013-04-17 18:02:00,68.0,-99.9,30.19,NW,307,8.0,13.0,-999,-99.99,,,-99.99,,2013-04-18 01:02:00,
2013-04-17 18:12:00,68.0,-99.9,30.19,WNW,300,12.0,15.0,-999,-99.99,,,-99.99,,2013-04-18 01:12:00,
2013-04-17 18:22:00,68.0,-99.9,30.19,WNW,299,9.0,13.0,-999,-99.99,,,-99.99,,2013-04-18 01:22:00,
2013-04-17 18:32:00,68.0,-99.9,30.19,WNW,299,13.0,15.0,-999,-99.99,,,-99.99,,2013-04-18 01:32:00,
2013-04-17 18:42:00,67.0,-99.9,30.19,WNW,301,12.0,16.0,-999,-99.99,,,-99.99,,2013-04-18 01:42:00,
2013-04-17 18:52:00,67.0,-99.9,30.19,WNW,303,12.0,17.0,-999,-99.99,,,-99.99,,2013-04-18 01:52:00,
2013-04-17 19:02:00,67.0,-99.9,30.19,WNW,303,12.0,16.0,-999,-99.99,,,-99.99,,2013-04-18 02:02:00,
2013-04-17 19:12:00,67.0,-99.9,30.19,WNW,303,12.0,16.0,-999,-99.99,,,-99.99,,2013-04-18 02:12:00,
2013-04-17 19:22:00,67.0,-99.9,30.19,WNW,300,10.0,15.0,-999,-99.99,,,-99.99,,2013-04-18 02:22:00,
2013-04-17 19:32:00,65.0,-99.9,30.19,WNW,293,10.0,14.0,-999,-99.99,,,-99.99,,2013-04-18 02:32:00,
2013-04-17 19:42:00,65.0,-99.9,30.19,WNW,293,10.0,14.0,-999,-99.99,,,-99.99,,2013-04-18 02:42:00,
2013-04-17 19:52:00,65.0,-99.9,30.19,WNW,293,10.0,14.0,-999,-99.99,,,-99.99,,2013-04-18 02:52:00,
2013-04-17 20:02:00,65.0,-99.9,30.20,WNW,301,10.0,13.0,-999,-99.99,,,-99.99,,2013-04-18 03:02:00,
2013-04-17 20:12:00,64.0,-99.9,30.20,WNW,301,10.0,15.0,-999,-99.99,,,-99.99,,2013-04-18 03:12:00,
2013-04-17 20:22:00,63.0,-99.9,30.20,WNW,303,11.0,14.0,-999,-99.99,,,-99.99,,2013-04-18 03:22:00,
2013-04-17 20:33:00,64.0,-99.9,30.20,WNW,303,11.0,14.0,-999,-99.99,,,-99.99,,2013-04-18 03:33:00,
2013-04-17 20:43:00,63.0,-99.9,30.20,WNW,298,10.0,13.0,-999,-99.99,,,-99.99,,2013-04-18 03:43:00,
2013-04-17 20:53:00,63.0,-99.9,30.21,WNW,300,10.0,12.0,-999,-99.99,,,-99.99,,2013-04-18 03:53:00,
2013-04-17 21:03:00,62.0,-99.9,30.22,WNW,301,6.0,9.0,-999,-99.99,,,-99.99,,2013-04-18 04:03:00,
2013-04-17 21:13:00,62.0,-99.9,30.22,WNW,301,6.0,9.0,-999,-99.99,,,-99.99,,2013-04-18 04:13:00,
2013-04-17 21:23:00,62.0,-99.9,30.22,WNW,301,8.0,12.0,-999,-99.99,,,-99.99,,2013-04-18 04:23:00,
2013-04-17 21:33:00,62.0,-99.9,30.22,WNW,287,5.0,8.0,-999,-99.99,,,-99.99,,2013-04-18 04:33:00,
2013-04-17 21:43:00,60.0,-99.9,30.23,SW,231,4.0,6.0,-999,-99.99,,,-99.99,,2013-04-18 04:43:00,
2013-04-17 21:53:00,60.0,-99.9,30.23,SW,231,4.0,6.0,-999,-99.99,,,-99.99,,2013-04-18 04:53:00,
2013-04-17 22:02:00,60.0,-99.9,30.24,West,260,3.0,4.0,-999,-99.99,,,-99.99,,2013-04-18 05:02:00,
2013-04-17 22:12:00,60.0,-99.9,30.24,West,266,4.0,5.0,-999,-99.99,,,-99.99,,2013-04-18 05:12:00,
2013-04-17 22:22:00,60.0,-99.9,30.24,West,273,4.0,6.0,-999,-99.99,,,-99.99,,2013-04-18 05:22:00,
2013-04-17 22:33:00,60.0,-99.9,30.24,WNW,290,4.0,6.0,-999,-99.99,,,-99.99,,2013-04-18 05:33:00,
2013-04-17 22:42:00,60.0,-99.9,30.24,NNW,327,0.0,3.0,-999,-99.99,,,-99.99,,2013-04-18 05:42:00,
2013-04-17 22:52:00,60.0,-99.9,30.24,North,10,1.0,2.0,-999,-99.99,,,-99.99,,2013-04-18 05:52:00,
2013-04-17 23:02:00,59.0,-99.9,30.24,NNE,33,0.0,2.0,-999,-99.99,,,-99.99,,2013-04-18 06:02:00,
2013-04-17 23:12:00,58.0,-99.9,30.24,South,187,2.0,3.0,-999,-99.99,,,-99.99,,2013-04-18 06:12:00,
2013-04-17 23:22:00,58.0,-99.9,30.24,NNW,335,1.0,2.0,-999,-99.99,,,-99.99,,2013-04-18 06:22:00,
2013-04-17 23:32:00,58.0,-99.9,30.23,South,169,1.0,2.0,-999,-99.99,,,-99.99,,2013-04-18 06:32:00,
2013-04-17 23:42:00,58.0,-99.9,30.23,SSW,202,0.0,1.0,-999,-99.99,,,-99.99,,2013-04-18 06:42:00,
2013-04-17 23:52:00,58.0,-99.9,30.23,NNE,15,1.0,1.0,-999,-99.99,,,-99.99,,2013-04-18 06:52:00,